Year,Month,Day,Hour,Minute,Value (Times are PST for temperature in C)
2015,01,23,00,00,6.60
2015,01,23,00,01,6.60
2015,01,23,00,02,6.60
2015,01,23,00,03,6.60
2015,01,23,00,04,6.60
2015,01,23,00,05,6.60
2015,01,23,00,06,6.60
2015,01,23,00,07,6.60
2015,01,23,00,08,6.60
2015,01,23,00,09,6.60
2015,01,23,00,10,6.60
2015,01,23,00,11,6.60
2015,01,23,00,13,6.60
2015,01,23,00,14,6.60
2015,01,23,00,15,6.60
2015,01,23,00,16,6.60
2015,01,23,00,18,6.60
2015,01,23,00,19,6.60
2015,01,23,00,20,6.60
2015,01,23,00,21,6.60
2015,01,23,00,22,6.60
2015,01,23,00,23,6.60
2015,01,23,00,24,6.60
2015,01,23,00,25,6.60
2015,01,23,00,26,6.60
2015,01,23,00,27,6.60
2015,01,23,00,28,6.60
2015,01,23,00,29,6.60
2015,01,23,00,30,6.60
2015,01,23,00,31,6.60
2015,01,23,00,32,6.60
2015,01,23,00,33,6.60
2015,01,23,00,34,6.60
2015,01,23,00,35,6.60
2015,01,23,00,36,6.60
2015,01,23,00,37,6.60
2015,01,23,00,38,6.60
2015,01,23,00,39,6.60
2015,01,23,00,40,6.60
2015,01,23,00,41,6.60
2015,01,23,00,42,6.60
2015,01,23,00,43,6.60
2015,01,23,00,44,6.60
2015,01,23,00,45,6.60
2015,01,23,00,46,6.60
2015,01,23,00,47,6.60
2015,01,23,00,48,6.60
2015,01,23,00,49,6.60
2015,01,23,00,50,6.60
2015,01,23,00,51,6.60
2015,01,23,00,52,6.60
2015,01,23,00,53,6.60
2015,01,23,00,54,6.60
2015,01,23,00,55,6.60
2015,01,23,00,56,6.60
2015,01,23,00,57,6.60
2015,01,23,00,59,6.70
2015,01,23,01,00,6.70
2015,01,23,01,01,6.70
2015,01,23,01,03,6.70
2015,01,23,01,04,6.60
2015,01,23,01,05,6.70
2015,01,23,01,06,6.70
2015,01,23,01,07,6.70
2015,01,23,01,08,6.70
2015,01,23,01,09,6.70
2015,01,23,01,10,6.60
2015,01,23,01,11,6.70
2015,01,23,01,12,6.60
2015,01,23,01,13,6.60
2015,01,23,01,14,6.70
2015,01,23,01,15,6.60
2015,01,23,01,16,6.60
2015,01,23,01,17,6.60
2015,01,23,01,18,6.60
2015,01,23,01,19,6.60
2015,01,23,01,20,6.60
2015,01,23,01,21,6.60
2015,01,23,01,22,6.70
2015,01,23,01,23,6.60
2015,01,23,01,24,6.60
2015,01,23,01,25,6.60
2015,01,23,01,26,6.60
2015,01,23,01,27,6.60
2015,01,23,01,28,6.70
2015,01,23,01,29,6.70
2015,01,23,01,30,6.60
2015,01,23,01,31,6.60
2015,01,23,01,32,6.60
2015,01,23,01,33,6.60
2015,01,23,01,34,6.60
2015,01,23,01,35,6.60
2015,01,23,01,36,6.60
2015,01,23,01,37,6.60
2015,01,23,01,38,6.60
2015,01,23,01,39,6.60
2015,01,23,01,40,6.60
2015,01,23,01,41,6.60
2015,01,23,01,42,6.60
2015,01,23,01,43,6.60
2015,01,23,01,44,6.60
2015,01,23,01,45,6.60
2015,01,23,01,46,6.60
2015,01,23,01,47,6.60
2015,01,23,01,48,6.60
2015,01,23,01,49,6.60
2015,01,23,01,50,6.60
2015,01,23,01,51,6.60
2015,01,23,01,52,6.60
2015,01,23,01,53,6.60
2015,01,23,01,54,6.60
2015,01,23,01,55,6.60
2015,01,23,01,56,6.60
2015,01,23,01,57,6.60
2015,01,23,01,58,6.60
2015,01,23,01,59,6.60
2015,01,23,02,00,6.60
2015,01,23,02,01,6.60
2015,01,23,02,02,6.60
2015,01,23,02,03,6.60
2015,01,23,02,04,6.60
2015,01,23,02,05,6.60
2015,01,23,02,06,6.60
2015,01,23,02,07,6.60
2015,01,23,02,08,6.60
2015,01,23,02,09,6.60
2015,01,23,02,10,6.60
2015,01,23,02,11,6.60
2015,01,23,02,12,6.60
2015,01,23,02,13,6.60
2015,01,23,02,14,6.60
2015,01,23,02,17,6.60
2015,01,23,02,20,6.60
2015,01,23,02,21,6.60
2015,01,23,02,24,6.60
2015,01,23,02,27,6.60
2015,01,23,02,34,6.60
2015,01,23,02,35,6.60
2015,01,23,02,36,6.60
2015,01,23,02,37,6.60
2015,01,23,02,38,6.60
2015,01,23,02,39,6.60
2015,01,23,02,40,6.60
2015,01,23,02,42,6.60
2015,01,23,02,43,6.60
2015,01,23,02,44,6.60
2015,01,23,02,45,6.60
2015,01,23,02,46,6.60
2015,01,23,02,47,6.60
2015,01,23,02,48,6.60
2015,01,23,02,49,6.60
2015,01,23,02,50,6.60
2015,01,23,02,51,6.60
2015,01,23,02,52,6.60
2015,01,23,02,53,6.60
2015,01,23,02,54,6.60
2015,01,23,02,55,6.60
2015,01,23,02,56,6.60
2015,01,23,02,57,6.60
2015,01,23,02,58,6.60
2015,01,23,02,59,6.60
2015,01,23,03,00,6.60
2015,01,23,03,01,6.60
2015,01,23,03,02,6.60
2015,01,23,03,03,6.60
2015,01,23,03,04,6.60
2015,01,23,03,05,6.60
2015,01,23,03,06,6.60
2015,01,23,03,07,6.60
2015,01,23,03,08,6.60
2015,01,23,03,09,6.60
2015,01,23,03,10,6.60
2015,01,23,03,12,6.60
2015,01,23,03,13,6.60
2015,01,23,03,14,6.60
2015,01,23,03,15,6.60
2015,01,23,03,16,6.60
2015,01,23,03,17,6.60
2015,01,23,03,18,6.60
2015,01,23,03,19,6.60
2015,01,23,03,20,6.60
2015,01,23,03,21,6.60
2015,01,23,03,22,6.60
2015,01,23,03,23,6.60
2015,01,23,03,24,6.60
2015,01,23,03,25,6.60
2015,01,23,03,26,6.60
2015,01,23,03,27,6.60
2015,01,23,03,28,6.60
2015,01,23,03,29,6.60
2015,01,23,03,30,6.60
2015,01,23,03,31,6.60
2015,01,23,03,32,6.60
2015,01,23,03,33,6.60
2015,01,23,03,34,6.60
2015,01,23,03,35,6.60
2015,01,23,03,36,6.60
2015,01,23,03,37,6.60
2015,01,23,03,38,6.60
2015,01,23,03,39,6.60
2015,01,23,03,40,6.60
2015,01,23,03,41,6.60
2015,01,23,03,42,6.60
2015,01,23,03,43,6.60
2015,01,23,03,44,6.60
2015,01,23,03,45,6.60
2015,01,23,03,46,6.60
2015,01,23,03,47,6.60
2015,01,23,03,48,6.60
2015,01,23,03,49,6.60
2015,01,23,03,50,6.60
2015,01,23,03,51,6.60
2015,01,23,03,52,6.60
2015,01,23,03,53,6.60
2015,01,23,03,54,6.60
2015,01,23,03,55,6.60
2015,01,23,03,56,6.60
2015,01,23,03,57,6.60
2015,01,23,03,58,6.60
2015,01,23,03,59,6.60
2015,01,23,04,00,6.60
2015,01,23,04,01,6.60
2015,01,23,04,02,6.60
2015,01,23,04,03,6.60
2015,01,23,04,04,6.60
2015,01,23,04,05,6.60
2015,01,23,04,06,6.60
2015,01,23,04,07,6.60
2015,01,23,04,08,6.60
2015,01,23,04,09,6.60
2015,01,23,04,10,6.60
2015,01,23,04,11,6.60
2015,01,23,04,12,6.60
2015,01,23,04,13,6.60
2015,01,23,04,14,6.60
2015,01,23,04,15,6.60
2015,01,23,04,16,6.60
2015,01,23,04,17,6.60
2015,01,23,04,18,6.60
2015,01,23,04,19,6.60
2015,01,23,04,20,6.60
2015,01,23,04,21,6.60
2015,01,23,04,22,6.60
2015,01,23,04,23,6.60
2015,01,23,04,24,6.60
2015,01,23,04,25,6.60
2015,01,23,04,26,6.60
2015,01,23,04,27,6.60
2015,01,23,04,29,6.60
2015,01,23,04,30,6.60
2015,01,23,04,31,6.60
2015,01,23,04,32,6.60
2015,01,23,04,33,6.60
2015,01,23,04,34,6.60
2015,01,23,04,35,6.60
2015,01,23,04,36,6.60
2015,01,23,04,37,6.60
2015,01,23,04,38,6.60
2015,01,23,04,39,6.60
2015,01,23,04,40,6.60
2015,01,23,04,41,6.60
2015,01,23,04,42,6.60
2015,01,23,04,43,6.60
2015,01,23,04,44,6.60
2015,01,23,04,45,6.60
2015,01,23,04,46,6.60
2015,01,23,04,47,6.60
2015,01,23,04,48,6.60
2015,01,23,04,49,6.60
2015,01,23,04,50,6.60
2015,01,23,04,51,6.60
2015,01,23,04,52,6.60
2015,01,23,04,53,6.60
2015,01,23,04,54,6.60
2015,01,23,04,55,6.70
2015,01,23,04,56,6.70
2015,01,23,04,57,6.60
2015,01,23,04,58,6.60
2015,01,23,04,59,6.60
2015,01,23,05,00,6.60
2015,01,23,05,01,6.60
2015,01,23,05,03,6.60
2015,01,23,05,04,6.60
2015,01,23,05,05,6.60
2015,01,23,05,06,6.60
2015,01,23,05,07,6.60
2015,01,23,05,08,6.60
2015,01,23,05,09,6.60
2015,01,23,05,10,6.60
2015,01,23,05,11,6.60
2015,01,23,05,12,6.60
2015,01,23,05,13,6.60
2015,01,23,05,14,6.60
2015,01,23,05,15,6.60
2015,01,23,05,16,6.60
2015,01,23,05,17,6.60
2015,01,23,05,18,6.60
2015,01,23,05,19,6.60
2015,01,23,05,20,6.60
2015,01,23,05,21,6.60
2015,01,23,05,22,6.60
2015,01,23,05,23,6.60
2015,01,23,05,24,6.60
2015,01,23,05,25,6.60
2015,01,23,05,26,6.60
2015,01,23,05,27,6.60
2015,01,23,05,28,6.60
2015,01,23,05,29,6.60
2015,01,23,05,30,6.60
2015,01,23,05,31,6.60
2015,01,23,05,32,6.60
2015,01,23,05,33,6.60
2015,01,23,05,34,6.60
2015,01,23,05,36,6.60
2015,01,23,05,37,6.60
2015,01,23,05,38,6.60
2015,01,23,05,39,6.60
2015,01,23,05,40,6.60
2015,01,23,05,41,6.60
2015,01,23,05,42,6.60
2015,01,23,05,43,6.60
2015,01,23,05,44,6.60
2015,01,23,05,45,6.60
2015,01,23,05,46,6.60
2015,01,23,05,47,6.60
2015,01,23,05,48,6.60
2015,01,23,05,49,6.60
2015,01,23,05,50,6.60
2015,01,23,05,51,6.60
2015,01,23,05,52,6.60
2015,01,23,05,53,6.60
2015,01,23,05,54,6.50
2015,01,23,05,55,6.60
2015,01,23,05,56,6.50
2015,01,23,05,57,6.50
2015,01,23,05,59,6.50
2015,01,23,06,00,6.50
2015,01,23,06,01,6.50
2015,01,23,06,02,6.60
2015,01,23,06,03,6.50
2015,01,23,06,04,6.50
2015,01,23,06,05,6.50
2015,01,23,06,06,6.50
2015,01,23,06,07,6.50
2015,01,23,06,08,6.50
2015,01,23,06,09,6.50
2015,01,23,06,10,6.60
2015,01,23,06,11,6.50
2015,01,23,06,12,6.50
2015,01,23,06,13,6.50
2015,01,23,06,14,6.50
2015,01,23,06,15,6.50
2015,01,23,06,16,6.50
2015,01,23,06,17,6.50
2015,01,23,06,18,6.50
2015,01,23,06,19,6.50
2015,01,23,06,20,6.50
2015,01,23,06,21,6.60
2015,01,23,06,22,6.50
2015,01,23,06,23,6.50
2015,01,23,06,24,6.60
2015,01,23,06,25,6.60
2015,01,23,06,26,6.50
2015,01,23,06,27,6.60
2015,01,23,06,28,6.50
2015,01,23,06,29,6.60
2015,01,23,06,30,6.50
2015,01,23,06,31,6.60
2015,01,23,06,32,6.60
2015,01,23,06,33,6.60
2015,01,23,06,34,6.60
2015,01,23,06,35,6.50
2015,01,23,06,36,6.60
2015,01,23,06,37,6.60
2015,01,23,06,38,6.60
2015,01,23,06,39,6.60
2015,01,23,06,40,6.60
2015,01,23,06,41,6.60
2015,01,23,06,42,6.60
2015,01,23,06,43,6.50
2015,01,23,06,44,6.60
2015,01,23,06,45,6.50
2015,01,23,06,46,6.60
2015,01,23,06,47,6.50
2015,01,23,06,48,6.60
2015,01,23,06,49,6.50
2015,01,23,06,50,6.50
2015,01,23,06,51,6.60
2015,01,23,06,52,6.50
2015,01,23,06,53,6.60
2015,01,23,06,54,6.60
2015,01,23,06,55,6.50
2015,01,23,06,56,6.50
2015,01,23,06,57,6.60
2015,01,23,06,58,6.50
2015,01,23,06,59,6.50
2015,01,23,07,00,6.60
2015,01,23,07,01,6.60
2015,01,23,07,03,6.60
2015,01,23,07,04,6.60
2015,01,23,07,05,6.60
2015,01,23,07,06,6.60
2015,01,23,07,07,6.60
2015,01,23,07,08,6.60
2015,01,23,07,09,6.60
2015,01,23,07,10,6.60
2015,01,23,07,11,6.60
2015,01,23,07,12,6.60
2015,01,23,07,13,6.60
2015,01,23,07,14,6.60
2015,01,23,07,15,6.60
2015,01,23,07,16,6.60
2015,01,23,07,17,6.60
2015,01,23,07,18,6.60
2015,01,23,07,19,6.60
2015,01,23,07,20,6.60
2015,01,23,07,21,6.60
2015,01,23,07,22,6.60
2015,01,23,07,23,6.60
2015,01,23,07,24,6.60
2015,01,23,07,25,6.60
2015,01,23,07,27,6.60
2015,01,23,07,28,6.60
2015,01,23,07,29,6.60
2015,01,23,07,30,6.60
2015,01,23,07,31,6.60
2015,01,23,07,32,6.60
2015,01,23,07,33,6.60
2015,01,23,07,34,6.60
2015,01,23,07,35,6.60
2015,01,23,07,36,6.60
2015,01,23,07,37,6.60
2015,01,23,07,38,6.60
2015,01,23,07,39,6.60
2015,01,23,07,40,6.60
2015,01,23,07,41,6.60
2015,01,23,07,42,6.60
2015,01,23,07,43,6.60
2015,01,23,07,44,6.60
2015,01,23,07,45,6.60
2015,01,23,07,46,6.60
2015,01,23,07,47,6.60
2015,01,23,07,48,6.60
2015,01,23,07,49,6.60
2015,01,23,07,50,6.60
2015,01,23,07,51,6.60
2015,01,23,07,52,6.60
2015,01,23,07,53,6.60
2015,01,23,07,54,6.60
2015,01,23,07,55,6.60
2015,01,23,07,56,6.60
2015,01,23,07,57,6.60
2015,01,23,07,58,6.60
2015,01,23,07,59,6.60
2015,01,23,08,00,6.60
2015,01,23,08,01,6.60
2015,01,23,08,02,6.60
2015,01,23,08,03,6.60
2015,01,23,08,04,6.60
2015,01,23,08,05,6.60
2015,01,23,08,06,6.60
2015,01,23,08,07,6.60
2015,01,23,08,08,6.60
2015,01,23,08,09,6.60
2015,01,23,08,10,6.60
2015,01,23,08,11,6.60
2015,01,23,08,12,6.60
2015,01,23,08,13,6.60
2015,01,23,08,14,6.60
2015,01,23,08,15,6.60
2015,01,23,08,16,6.60
2015,01,23,08,17,6.60
2015,01,23,08,18,6.60
2015,01,23,08,19,6.60
2015,01,23,08,20,6.60
2015,01,23,08,21,6.60
2015,01,23,08,22,6.60
2015,01,23,08,23,6.60
2015,01,23,08,24,6.60
2015,01,23,08,25,6.60
2015,01,23,08,26,6.60
2015,01,23,08,27,6.60
2015,01,23,08,28,6.60
2015,01,23,08,29,6.60
2015,01,23,08,30,6.60
2015,01,23,08,31,6.60
2015,01,23,08,32,6.60
2015,01,23,08,33,6.60
2015,01,23,08,34,6.50
2015,01,23,08,35,6.60
2015,01,23,08,36,6.60
2015,01,23,08,37,6.50
2015,01,23,08,38,6.60
2015,01,23,08,39,6.50
2015,01,23,08,40,6.50
2015,01,23,08,41,6.50
2015,01,23,08,42,6.50
2015,01,23,08,43,6.50
2015,01,23,08,44,6.50
2015,01,23,08,45,6.50
2015,01,23,08,46,6.50
2015,01,23,08,47,6.50
2015,01,23,08,48,6.50
2015,01,23,08,49,6.50
2015,01,23,08,50,6.50
2015,01,23,08,51,6.50
2015,01,23,08,52,6.50
2015,01,23,08,53,6.50
2015,01,23,08,54,6.50
2015,01,23,08,55,6.50
2015,01,23,08,56,6.50
2015,01,23,08,57,6.50
2015,01,23,08,58,6.50
2015,01,23,08,59,6.50
2015,01,23,09,00,6.50
2015,01,23,09,01,6.50
2015,01,23,09,02,6.50
2015,01,23,09,03,6.50
2015,01,23,09,04,6.50
2015,01,23,09,05,6.50
2015,01,23,09,06,6.50
2015,01,23,09,07,6.50
2015,01,23,09,08,6.50
2015,01,23,09,09,6.50
2015,01,23,09,10,6.60
2015,01,23,09,11,6.50
2015,01,23,09,12,6.50
2015,01,23,09,13,6.60
2015,01,23,09,14,6.50
2015,01,23,09,15,6.60
2015,01,23,09,16,6.60
2015,01,23,09,17,6.50
2015,01,23,09,18,6.60
2015,01,23,09,19,6.50
2015,01,23,09,20,6.50
2015,01,23,09,21,6.50
2015,01,23,09,22,6.50
2015,01,23,09,23,6.50
2015,01,23,09,24,6.50
2015,01,23,09,25,6.60
2015,01,23,09,26,6.60
2015,01,23,09,27,6.60
2015,01,23,09,28,6.60
2015,01,23,09,29,6.60
2015,01,23,09,30,6.60
2015,01,23,09,31,6.60
2015,01,23,09,32,6.60
2015,01,23,09,33,6.60
2015,01,23,09,34,6.60
2015,01,23,09,35,6.60
2015,01,23,09,36,6.60
2015,01,23,09,37,6.60
2015,01,23,09,38,6.60
2015,01,23,09,39,6.60
2015,01,23,09,40,6.60
2015,01,23,09,41,6.60
2015,01,23,09,42,6.60
2015,01,23,09,43,6.60
2015,01,23,09,44,6.70
2015,01,23,09,45,6.70
2015,01,23,09,46,6.70
2015,01,23,09,47,6.70
2015,01,23,09,48,6.70
2015,01,23,09,49,6.70
2015,01,23,09,50,6.70
2015,01,23,09,51,6.70
2015,01,23,09,52,6.70
2015,01,23,09,53,6.70
2015,01,23,09,54,6.70
2015,01,23,09,55,6.70
2015,01,23,09,56,6.70
2015,01,23,09,57,6.70
2015,01,23,09,58,6.70
2015,01,23,09,59,6.70
2015,01,23,10,00,6.70
2015,01,23,10,01,6.70
2015,01,23,10,02,6.70
2015,01,23,10,03,6.70
2015,01,23,10,04,6.70
2015,01,23,10,05,6.70
2015,01,23,10,06,6.70
2015,01,23,10,07,6.70
2015,01,23,10,08,6.70
2015,01,23,10,09,6.70
2015,01,23,10,10,6.70
2015,01,23,10,11,6.70
2015,01,23,10,12,6.80
2015,01,23,10,13,6.80
2015,01,23,10,14,6.80
2015,01,23,10,15,6.80
2015,01,23,10,16,6.80
2015,01,23,10,17,6.80
2015,01,23,10,18,6.80
2015,01,23,10,19,6.80
2015,01,23,10,20,6.80
2015,01,23,10,21,6.80
2015,01,23,10,22,6.80
2015,01,23,10,23,6.80
2015,01,23,10,24,6.80
2015,01,23,10,25,6.80
2015,01,23,10,26,6.80
2015,01,23,10,27,6.80
2015,01,23,10,28,6.80
2015,01,23,10,29,6.80
2015,01,23,10,30,6.80
2015,01,23,10,31,6.80
2015,01,23,10,32,6.80
2015,01,23,10,33,6.90
2015,01,23,10,34,6.90
2015,01,23,10,35,6.90
2015,01,23,10,36,6.90
2015,01,23,10,37,6.90
2015,01,23,10,38,6.90
2015,01,23,10,39,6.90
2015,01,23,10,40,6.90
2015,01,23,10,41,6.90
2015,01,23,10,42,6.90
2015,01,23,10,43,7.00
2015,01,23,10,44,7.00
2015,01,23,10,45,7.00
2015,01,23,10,46,7.00
2015,01,23,10,47,7.00
2015,01,23,10,48,7.00
2015,01,23,10,49,7.10
2015,01,23,10,50,7.10
2015,01,23,10,51,7.10
2015,01,23,10,52,7.10
2015,01,23,10,53,7.00
2015,01,23,10,54,7.00
2015,01,23,10,55,7.00
2015,01,23,10,56,7.00
2015,01,23,10,57,7.00
2015,01,23,10,58,7.00
2015,01,23,10,59,7.00
2015,01,23,11,00,6.90
2015,01,23,11,01,6.90
2015,01,23,11,02,7.00
2015,01,23,11,03,7.00
2015,01,23,11,04,7.00
2015,01,23,11,05,7.00
2015,01,23,11,06,7.00
2015,01,23,11,07,7.00
2015,01,23,11,08,7.00
2015,01,23,11,09,7.00
2015,01,23,11,10,7.00
2015,01,23,11,11,7.00
2015,01,23,11,12,7.00
2015,01,23,11,13,7.10
2015,01,23,11,14,7.10
2015,01,23,11,15,7.10
2015,01,23,11,16,7.10
2015,01,23,11,17,7.10
2015,01,23,11,18,7.10
2015,01,23,11,19,7.10
2015,01,23,11,20,7.10
2015,01,23,11,21,7.10
2015,01,23,11,22,7.10
2015,01,23,11,23,7.10
2015,01,23,11,24,7.10
2015,01,23,11,25,7.10
2015,01,23,11,26,7.10
2015,01,23,11,27,7.10
2015,01,23,11,28,7.20
2015,01,23,11,29,7.20
2015,01,23,11,30,7.20
2015,01,23,11,31,7.20
2015,01,23,11,32,7.20
2015,01,23,11,33,7.20
2015,01,23,11,34,7.20
2015,01,23,11,35,7.30
2015,01,23,11,36,7.30
2015,01,23,11,37,7.30
2015,01,23,11,38,7.30
2015,01,23,11,39,7.30
2015,01,23,11,40,7.30
2015,01,23,11,41,7.30
2015,01,23,11,42,7.30
2015,01,23,11,43,7.30
2015,01,23,11,44,7.30
2015,01,23,11,45,7.30
2015,01,23,11,46,7.30
2015,01,23,11,47,7.30
2015,01,23,11,48,7.40
2015,01,23,11,49,7.40
2015,01,23,11,50,7.40
2015,01,23,11,51,7.40
2015,01,23,11,52,7.40
2015,01,23,11,53,7.40
2015,01,23,11,54,7.40
2015,01,23,11,55,7.40
2015,01,23,11,56,7.40
2015,01,23,11,57,7.40
2015,01,23,11,58,7.40
2015,01,23,11,59,7.50
2015,01,23,12,00,7.50
2015,01,23,12,01,7.50
2015,01,23,12,02,7.50
2015,01,23,12,03,7.50
2015,01,23,12,04,7.50
2015,01,23,12,05,7.50
2015,01,23,12,06,7.60
2015,01,23,12,07,7.60
2015,01,23,12,08,7.60
2015,01,23,12,09,7.60
2015,01,23,12,10,7.60
2015,01,23,12,11,7.60
2015,01,23,12,12,7.60
2015,01,23,12,13,7.50
2015,01,23,12,14,7.50
2015,01,23,12,15,7.50
2015,01,23,12,16,7.50
2015,01,23,12,17,7.50
2015,01,23,12,18,7.50
2015,01,23,12,19,7.50
2015,01,23,12,20,7.50
2015,01,23,12,21,7.60
2015,01,23,12,22,7.50
2015,01,23,12,23,7.60
2015,01,23,12,24,7.60
2015,01,23,12,25,7.60
2015,01,23,12,26,7.60
2015,01,23,12,27,7.60
2015,01,23,12,28,7.60
2015,01,23,12,29,7.60
2015,01,23,12,30,7.60
2015,01,23,12,32,7.60
2015,01,23,12,33,7.60
2015,01,23,12,34,7.60
2015,01,23,12,35,7.60
2015,01,23,12,36,7.60
2015,01,23,12,37,7.60
2015,01,23,12,38,7.70
2015,01,23,12,39,7.70
2015,01,23,12,40,7.70
2015,01,23,12,41,7.70
2015,01,23,12,42,7.80
2015,01,23,12,43,7.80
2015,01,23,12,44,7.90
2015,01,23,12,45,7.90
2015,01,23,12,46,7.90
2015,01,23,12,47,7.90
2015,01,23,12,48,7.90
2015,01,23,12,49,8.00
2015,01,23,12,50,8.10
2015,01,23,12,51,8.10
2015,01,23,12,52,8.10
2015,01,23,12,53,8.20
2015,01,23,12,54,8.20
2015,01,23,12,55,8.20
2015,01,23,12,56,8.30
2015,01,23,12,57,8.30
2015,01,23,12,58,8.40
2015,01,23,12,59,8.40
2015,01,23,13,00,8.40
2015,01,23,13,01,8.50
2015,01,23,13,02,8.60
2015,01,23,13,03,8.60
2015,01,23,13,04,8.60
2015,01,23,13,05,8.70
2015,01,23,13,06,8.70
2015,01,23,13,07,8.70
2015,01,23,13,08,8.80
2015,01,23,13,09,8.80
2015,01,23,13,10,8.80
2015,01,23,13,11,8.90
2015,01,23,13,12,9.00
2015,01,23,13,13,9.10
2015,01,23,13,14,9.20
2015,01,23,13,15,9.30
2015,01,23,13,16,9.60
2015,01,23,13,17,9.80
2015,01,23,13,18,10.10
2015,01,23,13,19,10.30
2015,01,23,13,20,10.50
2015,01,23,13,21,10.70
2015,01,23,13,22,10.80
2015,01,23,13,23,10.90
2015,01,23,13,24,11.10
2015,01,23,13,25,11.20
2015,01,23,13,26,11.20
2015,01,23,13,27,11.20
2015,01,23,13,28,11.20
2015,01,23,13,29,11.10
2015,01,23,13,30,11.10
2015,01,23,13,31,10.90
2015,01,23,13,32,10.90
2015,01,23,13,33,10.80
2015,01,23,13,34,10.80
2015,01,23,13,35,10.80
2015,01,23,13,36,10.70
2015,01,23,13,37,10.70
2015,01,23,13,38,10.70
2015,01,23,13,39,10.70
2015,01,23,13,40,10.70
2015,01,23,13,41,10.70
2015,01,23,13,42,10.60
2015,01,23,13,43,10.60
2015,01,23,13,44,10.60
2015,01,23,13,45,10.60
2015,01,23,13,46,10.60
2015,01,23,13,47,10.60
2015,01,23,13,48,10.60
2015,01,23,13,49,10.60
2015,01,23,13,50,10.60
2015,01,23,13,51,10.70
2015,01,23,13,52,10.70
2015,01,23,13,53,10.80
2015,01,23,13,54,10.90
2015,01,23,13,55,11.00
2015,01,23,13,56,11.10
2015,01,23,13,57,11.10
2015,01,23,13,58,11.20
2015,01,23,13,59,11.20
2015,01,23,14,00,11.20
2015,01,23,14,01,11.30
2015,01,23,14,02,11.30
2015,01,23,14,03,11.30
2015,01,23,14,04,11.30
2015,01,23,14,05,11.30
2015,01,23,14,06,11.30
2015,01,23,14,07,11.30
2015,01,23,14,08,11.30
2015,01,23,14,09,11.40
2015,01,23,14,10,11.40
2015,01,23,14,11,11.40
2015,01,23,14,12,11.40
2015,01,23,14,13,11.40
2015,01,23,14,14,11.40
2015,01,23,14,15,11.50
2015,01,23,14,16,11.50
2015,01,23,14,17,11.60
2015,01,23,14,18,11.60
2015,01,23,14,19,11.60
2015,01,23,14,20,11.60
2015,01,23,14,21,11.60
2015,01,23,14,22,11.60
2015,01,23,14,23,11.60
2015,01,23,14,24,11.70
2015,01,23,14,25,11.70
2015,01,23,14,26,11.70
2015,01,23,14,27,11.70
2015,01,23,14,28,11.80
2015,01,23,14,29,11.80
2015,01,23,14,30,11.80
2015,01,23,14,31,11.80
2015,01,23,14,32,11.80
2015,01,23,14,33,11.80
2015,01,23,14,34,11.80
2015,01,23,14,35,11.80
2015,01,23,14,36,11.80
2015,01,23,14,37,11.80
2015,01,23,14,38,11.80
2015,01,23,14,39,11.80
2015,01,23,14,40,11.80
2015,01,23,14,41,11.80
2015,01,23,14,42,11.80
2015,01,23,14,43,11.80
2015,01,23,14,44,11.80
2015,01,23,14,45,11.80
2015,01,23,14,46,11.80
2015,01,23,14,47,11.80
2015,01,23,14,48,11.80
2015,01,23,14,49,11.80
2015,01,23,14,50,11.80
2015,01,23,14,51,11.80
2015,01,23,14,52,11.90
2015,01,23,14,53,11.90
2015,01,23,14,54,11.90
2015,01,23,14,55,11.90
2015,01,23,14,56,11.90
2015,01,23,14,57,11.90
2015,01,23,14,58,11.90
2015,01,23,14,59,11.90
2015,01,23,15,00,11.90
2015,01,23,15,01,11.90
2015,01,23,15,02,11.90
2015,01,23,15,03,12.00
2015,01,23,15,04,12.00
2015,01,23,15,05,12.10
2015,01,23,15,06,12.10
2015,01,23,15,07,12.10
2015,01,23,15,08,12.10
2015,01,23,15,09,12.10
2015,01,23,15,10,12.20
2015,01,23,15,11,12.20
2015,01,23,15,12,12.20
2015,01,23,15,13,12.20
2015,01,23,15,14,12.30
2015,01,23,15,15,12.30
2015,01,23,15,16,12.30
2015,01,23,15,17,12.40
2015,01,23,15,18,12.40
2015,01,23,15,19,12.50
2015,01,23,15,20,12.60
2015,01,23,15,21,12.60
2015,01,23,15,22,12.60
2015,01,23,15,23,12.60
2015,01,23,15,24,12.60
2015,01,23,15,25,12.50
2015,01,23,15,26,12.40
2015,01,23,15,27,12.40
2015,01,23,15,28,12.30
2015,01,23,15,29,12.20
2015,01,23,15,30,12.10
2015,01,23,15,31,12.10
2015,01,23,15,32,12.10
2015,01,23,15,33,12.00
2015,01,23,15,34,12.00
2015,01,23,15,35,12.00
2015,01,23,15,36,12.00
2015,01,23,15,37,12.10
2015,01,23,15,38,12.10
2015,01,23,15,39,12.10
2015,01,23,15,40,12.10
2015,01,23,15,41,12.20
2015,01,23,15,42,12.20
2015,01,23,15,43,12.20
2015,01,23,15,44,12.20
2015,01,23,15,45,12.20
2015,01,23,15,46,12.20
2015,01,23,15,47,12.20
2015,01,23,15,48,12.20
2015,01,23,15,49,12.20
2015,01,23,15,50,12.20
2015,01,23,15,51,12.20
2015,01,23,15,52,12.20
2015,01,23,15,53,12.20
2015,01,23,15,54,12.10
2015,01,23,15,55,12.10
2015,01,23,15,56,12.10
2015,01,23,15,57,12.10
2015,01,23,15,58,12.20
2015,01,23,15,59,12.20
2015,01,23,16,00,12.20
2015,01,23,16,01,12.20
2015,01,23,16,03,12.30
2015,01,23,16,04,12.30
2015,01,23,16,05,12.30
2015,01,23,16,06,12.40
2015,01,23,16,07,12.40
2015,01,23,16,08,12.40
2015,01,23,16,09,12.40
2015,01,23,16,10,12.40
2015,01,23,16,11,12.50
2015,01,23,16,12,12.50
2015,01,23,16,13,12.50
2015,01,23,16,14,12.50
2015,01,23,16,15,12.50
2015,01,23,16,16,12.40
2015,01,23,16,17,12.40
2015,01,23,16,18,12.40
2015,01,23,16,19,12.30
2015,01,23,16,20,12.30
2015,01,23,16,21,12.30
2015,01,23,16,22,12.20
2015,01,23,16,23,12.20
2015,01,23,16,24,12.20
2015,01,23,16,25,12.10
2015,01,23,16,26,12.10
2015,01,23,16,27,12.10
2015,01,23,16,28,12.10
2015,01,23,16,29,12.10
2015,01,23,16,30,12.00
2015,01,23,16,31,12.00
2015,01,23,16,32,12.00
2015,01,23,16,33,11.90
2015,01,23,16,34,12.00
2015,01,23,16,35,12.00
2015,01,23,16,36,12.10
2015,01,23,16,37,12.10
2015,01,23,16,38,12.10
2015,01,23,16,39,12.10
2015,01,23,16,40,12.10
2015,01,23,16,41,12.20
2015,01,23,16,42,12.20
2015,01,23,16,43,12.20
2015,01,23,16,44,12.20
2015,01,23,16,45,12.20
2015,01,23,16,46,12.20
2015,01,23,16,47,12.20
2015,01,23,16,48,12.20
2015,01,23,16,49,12.20
2015,01,23,16,50,12.20
2015,01,23,16,51,12.10
2015,01,23,16,52,12.10
2015,01,23,16,53,12.10
2015,01,23,16,54,12.10
2015,01,23,16,55,12.10
2015,01,23,16,56,12.10
2015,01,23,16,57,12.00
2015,01,23,16,58,12.00
2015,01,23,16,59,12.00
2015,01,23,17,00,12.00
2015,01,23,17,01,12.00
2015,01,23,17,02,11.90
2015,01,23,17,03,11.90
2015,01,23,17,04,11.90
2015,01,23,17,05,11.90
2015,01,23,17,06,11.90
2015,01,23,17,07,11.90
2015,01,23,17,08,11.90
2015,01,23,17,09,11.90
2015,01,23,17,10,11.90
2015,01,23,17,11,11.90
2015,01,23,17,12,11.90
2015,01,23,17,13,12.00
2015,01,23,17,14,12.00
2015,01,23,17,15,12.10
2015,01,23,17,16,12.10
2015,01,23,17,17,12.20
2015,01,23,17,18,12.20
2015,01,23,17,19,12.30
2015,01,23,17,20,12.30
2015,01,23,17,21,12.30
2015,01,23,17,22,12.30
2015,01,23,17,23,12.30
2015,01,23,17,24,12.40
2015,01,23,17,25,12.40
2015,01,23,17,26,12.40
2015,01,23,17,27,12.40
2015,01,23,17,28,12.40
2015,01,23,17,29,12.40
2015,01,23,17,30,12.40
2015,01,23,17,31,12.30
2015,01,23,17,32,12.30
2015,01,23,17,33,12.30
2015,01,23,17,34,12.30
2015,01,23,17,35,12.30
2015,01,23,17,36,12.30
2015,01,23,17,37,12.30
2015,01,23,17,38,12.40
2015,01,23,17,39,12.40
2015,01,23,17,40,12.40
2015,01,23,17,41,12.40
2015,01,23,17,42,12.50
2015,01,23,17,43,12.50
2015,01,23,17,44,12.50
2015,01,23,17,45,12.50
2015,01,23,17,46,12.40
2015,01,23,17,47,12.40
2015,01,23,17,48,12.40
2015,01,23,17,49,12.40
2015,01,23,17,50,12.30
2015,01,23,17,51,12.30
2015,01,23,17,52,12.30
2015,01,23,17,53,12.30
2015,01,23,17,54,12.30
2015,01,23,17,55,12.30
2015,01,23,17,56,12.30
2015,01,23,17,57,12.40
2015,01,23,17,58,12.40
2015,01,23,17,59,12.40
2015,01,23,18,00,12.40
2015,01,23,18,01,12.40
2015,01,23,18,03,12.50
2015,01,23,18,04,12.40
2015,01,23,18,05,12.40
2015,01,23,18,06,12.50
2015,01,23,18,07,12.50
2015,01,23,18,08,12.50
2015,01,23,18,09,12.50
2015,01,23,18,10,12.60
2015,01,23,18,11,12.60
2015,01,23,18,12,12.60
2015,01,23,18,13,12.60
2015,01,23,18,14,12.60
2015,01,23,18,15,12.60
2015,01,23,18,16,12.60
2015,01,23,18,17,12.60
2015,01,23,18,19,12.70
2015,01,23,18,20,12.70
2015,01,23,18,21,12.70
2015,01,23,18,22,12.70